OK1WJW-6 Weather Reports


time (UTC)temp
F
wind
direction
speed
knots
gust
knots
rain 1hr
in
rain 24hr
in
rain mn
in
humidity
%
barometer
mb
20260505122048 71 123 0.9 3.5 0.00 0.00 0.00 58 1007.9
20260505114032 71 194 1.7 5.2 0.00 0.00 0.00 59 1008.1
20260505102105 70 117 3.5 6.1 0.00 0.00 0.00 64 1008.9
20260505094050 68 135 4.3 7.8 0.00 0.00 0.00 66 1009.2
20260505090036 67 141 3.5 7.8 0.00 0.00 0.00 67 1009.5
20260505082022 67 117 3.5 6.1 0.00 0.00 0.00 72 1009.9
20260505074109 66 119 2.6 3.5 0.00 0.00 0.00 73 1010.1
20260505070054 62 58 2.6 6.1 0.00 0.00 0.00 76 1010.3
20260505062041 63 48 0.9 3.5 0.00 0.00 0.00 75 1010.5
20260505054027 57 268 0.9 3.5 0.00 0.00 0.00 89 1010.5
20260505050114 56 158 0.0 1.7 0.00 0.00 0.00 89 1010.5
20260505034046 55 269 0.9 3.5 0.00 0.00 0.00 91 1010.4
20260505030032 57 326 1.7 3.5 0.00 0.00 0.00 86 1010.7
20260505022019 56 0.0 0.0 0.00 0.00 0.00 85 1011.4
20260505014105 58 0.0 1.7 0.00 0.00 0.00 81 1011.2
20260505010051 59 281 0.9 1.7 0.00 0.00 0.00 79 1011.5
20260505002037 60 71 0.9 3.5 0.00 0.00 0.00 77 1012.0
20260504234022 60 0.0 1.7 0.00 0.00 0.00 74 1012.3
20260504230109 60 87 0.9 1.7 0.00 0.00 0.00 73 1012.6
20260504222055 62 317 1.7 5.2 0.00 0.00 0.00 69 1013.0
20260504214041 63 329 1.7 5.2 0.00 0.00 0.00 67 1013.1
20260504210026 63 49 0.9 1.7 0.00 0.00 0.00 60 1013.1
20260504202112 63 263 0.9 1.7 0.00 0.00 0.00 61 1013.1
20260504194058 64 265 1.7 3.5 0.00 0.00 0.00 56 1013.1
20260504190044 69 96 2.6 7.0 0.00 0.00 0.00 45 1013.1
20260504182030 66 290 1.7 3.5 0.00 0.00 0.00 60 1013.4
20260504174015 68 293 1.7 1.7 0.00 0.00 0.00 58 1013.2